Preview of NWS' New Version of Forecast
This preview is not operational and should not be used for support decisions.

Regional Weather Roundup (RWR)

Issued by Austin/San Antonio, TX (EWX)

                            
000
ASUS44 KEWX 160810
RWREWX
SOUTH TEXAS REGIONAL WEATHER ROUNDUP
NATIONAL WEATHER SERVICE AUSTIN/SAN ANTONIO TX
300 AM CDT TUE OCT 16 2018

NOTE: "FAIR" INDICATED FEW OR NO CLOUDS BELOW 12,000 FEET WITH NO
SIGNIFICANT WEATHER AND/OR OBSTRUCTIONS TO VISIBILITY.

* - THESE STATIONS ARE NOT NWS OR FAA STATIONS...AND ARE NOT SUBJECT
    TO NWS AND FAA QUALITY CONTROL.
 
TXZ171-172-183>190-160900-
TEXAS HILL COUNTRY AND EDWARDS PLATEAU
  
CITY           SKY/WX    TMP DP  RH WIND       PRES   REMARKS
JUNCTION       RAIN      42  40  92 VRB3      30.27R FOG              
*LLANO         LGT RAIN N/A N/A N/A NW5       30.25R                  
BURNET         HVY RAIN  45  43  93 NW8       30.20R FOG     WCI  41  
*HORSESHOE BAY LGT RAIN  45  44  97 NW8       30.20R WCI  41          
*KERRVILLE     LGT RAIN  42  39  91 NW8       30.19R WCI  36          
*FREDERICKSBRG LGT RAIN  41  39  93 NW10G16   30.21R WCI  35          
*ROCKSPRINGS   LGT RAIN  39  39 100 N13G21    30.26S WCI  32          
*BOERNE STAGE  CLOUDY    43  41  93 N12G17    30.18S WCI  37          
*CASTROVILLE   CLOUDY    46  46  99 NW5       30.19F WCI  44          
HONDO          LGT RAIN  47  46  97 N7        30.19S WCI  44          
*UVALDE        HVY RAIN  45  44  97 NW12      30.23F WCI  39          
DEL RIO        LGT RAIN  45  45 100 NW13      30.27F WCI  39          
LAUGHLIN AFB   LGT RAIN  44  42  92 NW17      30.26F WCI  36          
CARRIZO SPRGS  DRIZZLE   45  45 100 N10       30.22F WCI  39          
*EAGLE PASS    CLOUDY    39  36  87 NW14G23   30.25S WCI  31          
*FAITH RANCH   CLOUDY    46  46 100 NW15G24   30.22F WCI  40          
$$

TXZ173-191>194-202-209-217>225-228-160900-
CENTRAL AND SOUTH CENTRAL TEXAS
  
CITY           SKY/WX    TMP DP  RH WIND       PRES   REMARKS
GEORGETOWN     HVY RAIN  46  45  96 N12       30.19S FOG     WCI  41  
AUSTIN/BERGSTM LGT RAIN  49  46  90 N10       30.15S WCI  45          
AUSTIN/MABRY   RAIN      47  45  93 N6        30.16F FOG     WCI  44  
*LAGO VISTA    RAIN      45  45 100 N7        30.17R WCI  41          
SAN MARCOS     CLOUDY   N/A N/A N/A MISG      30.18R HAZE             
NEW BRAUNFELS  LGT RAIN  47  45  93 NW8       30.16R WCI  43          
RANDOLPH AFB   LGT RAIN  47  44  92 NW9       30.17R WCI  42          
PT SAN ANTONIO MOCLDY    47  45  94 N8        30.14S WCI  43          
SAN ANTONIO    LGT RAIN  46  44  93 N9        30.17F FOG     WCI  41  
STINSON FIELD  CLOUDY    50  44  80 N6        30.15F WCI  48          
*LA GRANGE     LGT SNOW  49  49 100 N8        30.11R VSB 1   WCI  45  
*GIDDINGS      RAIN      45  43  95 N7        30.13S WCI  41          
*GONZALES      LGT RAIN  48  48  99 N8        30.15R WCI  44          
$$

TXZ163>164-176>182-195>201-210>213-226-227-235-160900-
SOUTHEAST TEXAS
  
CITY           SKY/WX    TMP DP  RH WIND       PRES   REMARKS
COLLEGE STN    HVY RAIN  49  49 100 N16G22    30.10F FOG     WCI  43  
*BRYAN         CLOUDY    48  48 100 NE12G18   30.11F WCI  44          
*CALDWELL      RAIN      48  47  95 N12       30.13R WCI  43          
*CROCKETT      RAIN      50  50 100 N9        30.16S WCI  46          
*BRENHAM       LGT RAIN  51  51 100 N7        30.11R                  
HUNTSVILLE     RAIN      50  50 100 MISG      30.10F                  
CONROE         CLOUDY    55  55 100 N6        30.08F                  
HOUSTON BUSH   CLOUDY    57  57 100 N10       30.05F FOG              
HOUSTON HOBBY  CLOUDY    59  58  96 N13       30.04F FOG              
*HOUSTON SW AP CLOUDY    56  56 100 N5        30.06S FOG              
PEARLAND       CLOUDY    60  60 100 N8        30.05S FOG              
HOUSTON HOOKS  CLOUDY    55  54  96 N9        30.06F                  
ELLINGTON FLD  CLOUDY    59  55  88 N9        30.07S FOG              
SUGAR LAND     CLOUDY    57  54  89 N15       30.05F                  
*HOUSTON EXEC  CLOUDY    54  52  94 N13       30.08F                  
*CLEVELAND MUN CLOUDY    58  56  95 N6        30.08F FOG              
*WHARTON       CLOUDY    52  50  93 N6        30.08R                  
*COLUMBUS      LGT RAIN  50  48  92 NW7       30.10S WCI  47          
*EAGLE LAKE    RAIN      53  52  97 N9        30.07F                  
$$

TXZ214>216-236>238-160900-
THE UPPER TEXAS COAST
  
CITY           SKY/WX    TMP DP  RH WIND       PRES   REMARKS
*ORANGE        CLOUDY    67  67 100 NE6       30.05R                  
PORT ARTHUR    CLOUDY    69  66  90 NE9       30.02R                  
GALVESTON      CLOUDY    70  69  97 N17       30.02F                  
ANGLETON       CLOUDY    58  58 100 N9        30.03F FOG              
*BAY CITY      NOT AVBL                                               
PALACIOS       CLOUDY    53  53 100 NW14      30.06S FOG              
$$

TXZ229>234-239>247-160900-
TEXAS COASTAL BEND AND RIO GRANDE PLAINS
  
CITY           SKY/WX    TMP DP  RH WIND       PRES   REMARKS
VICTORIA       LGT RAIN  50  49  96 NW12      30.11S FOG     WCI  46  
*BEEVILLE      CLOUDY    47  47  97 NW14      30.14F WCI  41          
ROCKPORT       CLOUDY    51  50  96 NW17      30.10F                  
*PORT ARANSAS  NOT AVBL                                               
*PORT LAVACA   CLOUDY    53  51  94 NW14      30.10S FOG              
*INGLESIDE     DRIZZLE   51  49  93 N16       30.11F                  
CORPUS CHRISTI DRIZZLE   50  48  93 NW17      30.12F FOG     WCI  44  
CORPUS NAS     CLOUDY    54  52  93 NW23      30.10F                  
*ROBSTOWN      LGT RAIN  49  48  95 NW17G24   30.13F WCI  43          
ALICE          CLOUDY    49  47  93 NW13      30.14F WCI  44          
KINGSVILLE NAS CLOUDY    51  48  89 NW15      30.13F                  
COTULLA        LGT RAIN  46  46 100 NW13      30.21S WCI  40          
LAREDO         CLOUDY    48  45  89 NW15      30.20F WCI  42          
$$

TXZ248>255-160900-
DEEP SOUTH TEXAS
  
CITY           SKY/WX    TMP DP  RH WIND       PRES   REMARKS
BROWNSVILLE    CLOUDY    55  52  89 NW15G25   30.10F                  
PORT ISABEL    CLOUDY    54  49  83 NW21G29   30.09F                  
HARLINGEN      CLOUDY    53  50  89 NW20G25   30.12S                  
*HEBBRONVILLE  CLOUDY    46  45  94 N17G23    30.17F WCI  39          
MCALLEN        CLOUDY    54  49  83 NW15      30.15F                  
*WESLACO       CLOUDY    50  47  88 N14G25    30.14S WCI  45          
FALFURRIAS     CLOUDY    51  47  87 NW15G22   30.14S                  
EDINBURG       HVY RAIN  52  49  88 NW13G21   30.15S                  
*ZAPATA        DRIZZLE   48  46  90 NW10      30.19S WCI  44          
$$

TXZ213>215-236>238-242>244-246-247-251-254-255-160900-
CMAN STATIONS
  
STATION/POSITION TIME  TEMP    WIND        PRES    WAVE
                       AIR SEA DIR/SP/G            HT/PER
                 (UTC) (F)     (DEG/KT/KT) (MB)    (FT/S)
SABINE PASS      0742   71 83   30/ 13/ 16 1018.0
SEA RIM ST PARK  0800   70      40/ 12/ 15 1016.5
NORTH JETTY/GLS  0742   69 80   10/ 14/ 17 1015.8
EAGLE POINT      0742   63 77   10/ 10/ 14 1017.0
MORGANS POINT    0742   60 78  350/ 12/ 15 1017.3
PORT O'CONNOR    0742   55 65  320/ 18/ 20 1017.7
PORT ARANSAS     0800   51 79  300/ 16/ 20 1019.2
MALAQUITE BEACH  0742   52 78  290/ 15/ 20 1018.9
BAFFIN BAY       0742   51 73  300/ 23/ 28 1019.4
PORT ISABEL      0742      82  320/ 19/ 28 1018.9
$$